Location: Cz?stochówka
(50.8142°N, 19.0915°E)
Time: 09:18:33
(UTC+00:00)

Okean 2 - Pass Details

Date: 13 January 2026
Orbit: 515 x 525 km, 82.5° (Epoch: 17 February)

Event Time Altitude Azimuth Distance (km) Brightness Sun altitude
Exits shadow 04:54:21 32° 303° (WNW) 908 3.9 -16.2°
Maximum altitude 04:55:21 39° 267° (W) 795 3.6 -16.0°
Drops below altitude 10° 04:58:54 10° 198° (SSW) 1,740 5.8 -15.5°
Sets 05:01:07 0° 191° (S) 2,622 6.9 -15.1°
